Regional Weather Roundup
Issued by NWS Grand Forks, ND

Home | Current Version | Previous Version | Text Only | Print | Product List | Glossary Off
Versions: 1 2 3 4 5 6 7 8 9 10 11 12 13 14 15 16 17 18 19 20 21 22 23 24 25 26 27 28 29 30 31 32 33 34 35 36 37 38 39 40 41 42 43 44 45 46 47 48 49 50

000
ASUS43 KFGF 270131
RWRFGF
PRAIRIE TO PINES  WEATHER ROUNDUP
NATIONAL WEATHER SERVICE EASTERN NORTH DAKOTA/GRAND FORKS ND
800 PM CDT SUN MAR 26 2017

 **SATELLITE DATA USED TO AUGMENT SKY COVER AT AUTOMATED STATIONS**
 *****  WEATHER ACROSS EASTERN NORTH DAKOTA  *****

CITY           SKY/WX    TMP DP  RH WIND       PRES   REMARKS
GRAND FORKS    FAIR      44  40  85 CALM      29.94S
GRAND FRKS AFB FAIR      42  39  91 CALM      29.94S
DEVILS LAKE    FAIR      42  40  92 NE6       29.93R
FARGO          MOCLDY    43  38  82 CALM      29.94S
WAHPETON ARPT    N/A     41  34  75 CALM      29.96R
$$

 ***** WEATHER ACROSS CENTRAL AND WESTERN NORTH DAKOTA  *****

CITY           SKY/WX    TMP DP  RH WIND       PRES   REMARKS
BISMARCK       FAIR      50  37  61 E7        29.91R
MINOT          MOCLDY    50  39  66 E9        29.87R
JAMESTOWN      FAIR      45  38  76 SE5       29.91S
MINOT AFB      MOCLDY    44  39  82 S8        29.87R
GARRISON         N/A     48  33  56 SE3       29.87R
WILLISTON      FAIR      55  29  36 NW9       29.86R
DICKINSON      FAIR      51  26  37 CALM      29.86R
HETTINGER      FAIR      51  35  54 S7        29.89S
$$

 *****  OTHER AIRPORT OBSERVATIONS IN OUR AREA  *****

CITY           SKY/WX    TMP DP  RH WIND       PRES   REMARKS
WALHALLA       NOT AVBL
GRAFTON AIRPOR FAIR      39  39 100 N6        29.98R FOG
VALLEY CITY AR CLOUDY    45  45 100 CALM      29.95R
CANDO          NOT AVBL
CAVALIER APRT  FAIR      34  34 100 W3        29.96S FOG
GWINNER        CLEAR     43  39  87 MISG      29.94R
SHEYENNE NWR     N/A     45  36  71 E3        29.95S
ROLLA          FAIR      36  36 100 SE5       29.92S
 ***** THE ABOVE OBSERVATIONS ARE NON NWS ARE NOT QUALITY
       CONTROLLED AND MAY MIS-REPORT RAIN FOR SNOW...
$$

  *****  WEATHER ACROSS NORTHERN MINNESOTA  *****

CITY           SKY/WX    TMP DP  RH WIND       PRES   REMARKS
FLAG ISLAND    FAIR      36  30  80 S3        29.93S
WARROAD        FAIR      37  34  87 CALM      29.95R
ROSEAU         FAIR      39  36  87 CALM      29.95R
HALLOCK        FAIR      37  36  93 CALM      29.96R FOG
THF RVR FALLS  FAIR     N/A N/A N/A CALM      29.95S
BAUDETTE       FAIR      37  32  82 CALM      29.93S
WASKISH        CLOUDY    37  30  75 CALM      29.94R
CROOKSTON      FAIR      41  39  93 CALM      29.96R
STEPHEN NDAWN    N/A     37  37 100 N3          N/A
GREENBUSH NDAW   N/A     37  36  93 W3          N/A
$$
  *****  WEATHER ACROSS CENTRAL AND WEST MINNESOTA  *****

CITY           SKY/WX    TMP DP  RH WIND       PRES   REMARKS
FOSSTON        CLOUDY    39  36  87 N3        29.95R
BEMIDJI        CLOUDY    42  32  69 CALM      29.93R
PARK RAPIDS    CLOUDY    44  31  60 CALM      29.92R
ELBOW LAKE     MOCLDY    40  37  87 NW3       29.95S
WADENA         FAIR      43  34  70 CALM      29.93R
DETROIT LAKES  FAIR      43  37  81 NW6       29.95R
MOORHEAD       MOCLDY    39  37  93 S3        29.96S
FERGUS FALLS   MOCLDY    41  36  81 NW3       29.98S
MORRIS MN      CLOUDY    43  37  81 NW7       29.94R
STAPLES        FAIR      43  34  70 SE3       29.93S
$$
  *****  WEATHER ELSEWHERE ACROSS MINNESOTA  *****

CITY           SKY/WX    TMP DP  RH WIND       PRES   REMARKS
DULUTH         FOG       33  33 100 CALM      29.93R VSB 1/2
INTRNTL FALLS  CLOUDY    39  31  72 CALM      29.93R
ELY            FAIR      30  28  93 CALM      29.91S
CLOQUET        FOG       34  32  93 CALM      29.94R VSB 1/4
WHEATON        MOCLDY    43  36  75 CALM      29.97S
BRAINERD       CLOUDY    42  33  70 CALM      29.93S
HIBBING        FAIR      32  30  92 CALM      29.92R
ALEXANDRIA     CLOUDY    44  35  70 N5        29.93S
SAINT CLOUD    CLOUDY    38  38 100 CALM      29.94S
MINNEAPOLIS    CLOUDY    41  36  82 N7        29.93S
$$

  *****  WEATHER ACROSS SOUTH DAKOTA  *****

CITY           SKY/WX    TMP DP  RH WIND       PRES   REMARKS
SIOUX FALLS    CLOUDY    45  39  79 N5        29.93R
BROOKINGS      FAIR      41  37  86 CALM      29.92S
WATERTOWN      CLOUDY    42  37  82 CALM      29.92S
HURON          FAIR      44  37  76 N3        29.93S
SISSETON         N/A     43  38  82 E3        29.93S
ABERDEEN       CLOUDY    45  35  68 S3        29.94R
MITCHELL       MOCLDY    45  38  76 CALM      29.94R
PIERRE         CLOUDY    45  38  76 NW7       29.92S
MOBRIDGE       CLOUDY    50  37  61 SE3       29.89S
RAPID CITY     CLOUDY    43  39  86 NW5       29.93R
$$

  *****  SOME WEATHER IN NEARBY STATES *****

CITY           SKY/WX    TMP DP  RH WIND       PRES   REMARKS
GLASGOW MT     FAIR      53  22  29 W5        29.87S
GREAT FALLS MT FAIR      52  19  27 CALM      29.80F
CHEYENNE WY    FAIR      42  33  70 N9        29.95R
SCOTTSBLUFF NE MOCLDY    48  36  63 NW6       29.94R
OMAHA NE       CLOUDY    49  41  74 NW3       29.95R
DES MOINES IA  CLOUDY    47  43  86 NW6       29.92R
DAVENPORT IA   CLOUDY    49  47  93 W12       29.90R
CHICAGO IL     DRIZZLE   56  51  84 SW8       29.85R
EAU CLAIRE WI  CLOUDY    42  38  85 N3        29.90R
LA CROSSE WI   CLOUDY    43  40  89 CALM      29.90F
$$

  *****  SOME NATIONAL WEATHER *****

CITY           SKY/WX    TMP DP  RH WIND       PRES   REMARKS
LA GUARDIA NY  DRIZZLE   41  37  86 NE9       30.37F FOG
RALEIGH NC     CLOUDY    70  51  51 S7        30.15R
ATLANTA GA     FAIR      72  53  51 SW3       30.05R
NEW ORLEANS LA FAIR      73  67  81 SE10      29.99R
OKLAHOMA CITY  FAIR      66  59  78 SE9       29.67F
ALBUQUERQUE NM FAIR      63  22  20 N14       29.95R
SALT LAKE CITY MOCLDY    53  30  41 S9        29.97R
LOS ANGELES CA FAIR      60  54  80 W15       30.03S
BOISE ID       PTSUNNY   50  35  56 E12       29.90F
SEATTLE WA     CLOUDY    48  44  86 SE7       29.74F
$$

*** WEATHER ACROSS MANITOBA...SASKATCHEWAN AND ONTARIO ***
                ***ONTARIO***

CITY           SKY/WX    TMP DP  RH WIND       PRES   REMARKS
GERALDTON      CLOUDY    34  28  80 S5        29.91F
THUNDER BAY    DRIZZLE   32  32 100 E6        29.95S
SIOUX LOOKOUT  PTCLDY    34  30  86 CALM      29.91R
TORONTO        CLOUDY    41  37  87 E7        29.99F
BIG TROUT LK   CLOUDY    36  28  75 NW10      29.88R
PICKLE LAKE    PTCLDY    39  28  65 SW6       29.87R
DRYDEN         CLEAR     39  32  75 SW6       29.91S
KENORA         PTCLDY    37  30  75 SW5       29.92S
$$
                *** MANITOBA***

CITY           SKY/WX    TMP DP  RH WIND       PRES   REMARKS
BRANDON        CLOUDY    37  34  87 E6        29.93R
DAUPHIN        LGT RAIN  36  32  87 E6        29.95S
ISLAND LAKE    PTCLDY    32  21  64 NW6       29.94R
PILOT MOUND      N/A     34  34 100 SE6         N/A
THE PAS        MOCLDY    34  19  55 CALM      29.99R
THOMPSON       CLOUDY    23  18  80 N7        30.02R WCI  15
WINNIPEG       PTCLDY    37  34  87 NE6       29.96R
LYNN LAKE      CLOUDY    25  19  80 NE5       30.02R WCI  19
CHURCHILL      LGT SNOW  12  10  92 N14       30.05R DRFTSNOWWCI  -3
GILLAM         FLURRIES  18  12  79 N14       30.00R WCI   4
$$
                ***SASKATCHEWAN***

CITY           SKY/WX    TMP DP  RH WIND       PRES   REMARKS
ESTEVAN        MOCLDY    43  37  81 E10       29.87R
KINDERSLEY     MOCLDY    36  34  93 E12G17    29.87R
LLOYDMINSTER   MOCLDY    41  32  70 SE8       29.86F
PRINCE ALBERT  MOCLDY    30  25  80 E6        29.95S WCI  24
REGINA         MOCLDY    50  27  40 W7        29.85R
YORKTON        PTCLDY    39  36  87 SE10      29.87S
N. BATTLEFORD  CLEAR     36  30  80 SE6       29.92S
LA RONGE       PTCLDY    30  21  69 S5        29.99R
SASKATOON      CLOUDY    32  28  86 E8        29.94R WCI  25
SWIFT CURRENT  CLEAR     46  28  49 N10       29.83R
$$
NOTE: THESE ARE AUTOMATED STATIONS WITH LIMITED QUALITY CONTROL
      "FAIR" INDICATES FEW OR NO CLOUDS BELOW 12,000 FEET WITH NO
      SIGNIFICANT WEATHER AND/OR OBSTRUCTIONS TO VISIBILITY.
      SKY/WX - SKY CONDITION AND SIGNIFICANT WEATHER.
      TMP - AIR TEMPERATURE.    DP   - DEWPOINT TEMPERATURE.
      RH  - RELATIVE HUMIDITY.  PRES - PRESSURE.
      HX  - HEAT INDEX.         WCI  - WIND CHILL INDEX.
$



USA.gov is the U.S. government's official web portal to all federal, state and local government web resources and services.